Location: Elbart
(49.6135°N, 11.9134°E)
Time: 13:39:56
(UTC+00:00)

SL-4 R/B - Pass Details

Date: 09 April 2020
Orbit: 428 x 666 km, 51.6° (Epoch: 25 May)

Event Time Altitude Azimuth Distance (km) Brightness Sun altitude
Rises 19:02:32 0° 255° (WSW) 2,395 6.1 -10.8°
Reaches altitude 10° 19:04:38 10° 257° (WSW) 1,524 5.1 -11.1°
Maximum altitude 19:08:02 80° 345° (NNW) 442 1.6 -11.6°
Enters shadow 19:11:15 12° 73° (ENE) 1,457 3.8 -12.1°
